Location: Phoenix
(33.4480°N, 112.0730°W)
Time: 15:32:58
(UTC-07:00)

ISS - All Passes

Search period start: 27 April 2017 00:00
Search period end: 07 May 2017 00:00
Orbit: 401 x 409 km, 51.6° (Epoch: 28 April)

Date Brightness Start Highest point End Pass type
(mag) Time Alt. Az. Time Alt. Az. Time Alt. Az.
27 Apr - 06:24:22 10° SSE 06:26:10 14° SE 06:27:58 10° E daylight
27 Apr - 07:59:18 10° WSW 08:02:23 39° NW 08:05:28 10° NNE daylight
27 Apr - 14:30:21 10° NNW 14:33:17 30° NE 14:36:12 10° ESE daylight
27 Apr - 16:07:16 10° W 16:09:36 18° SW 16:11:55 10° S daylight
28 Apr - 07:07:02 10° SW 07:10:17 86° NW 07:13:33 10° NE daylight
28 Apr - 08:46:23 10° NW 08:47:12 11° NNW 08:48:02 10° NNW daylight
28 Apr - 13:38:48 10° NNW 13:41:04 17° NNE 13:43:19 10° ENE daylight
28 Apr - 15:14:35 10° WNW 15:17:40 39° SW 15:20:44 10° SSE daylight
29 Apr - 06:15:12 10° SSW 06:18:17 40° SE 06:21:22 10° ENE daylight
29 Apr - 07:52:37 10° WNW 07:54:53 17° NNW 07:57:09 10° N daylight
29 Apr - 12:47:54 10° NNE 12:48:44 11° NNE 12:49:35 10° NE daylight
29 Apr - 14:22:24 10° NW 14:25:39 87° NE 14:28:54 10° SE daylight
30 Apr - 05:23:59 10° S 05:26:20 18° SE 05:28:41 10° E daylight
30 Apr - 06:59:43 10° WSW 07:02:39 30° NW 07:05:35 10° NNE daylight
30 Apr - 13:30:27 10° NNW 13:33:32 39° NE 13:36:37 10° ESE daylight
30 Apr - 15:07:58 10° W 15:09:45 14° SW 15:11:30 10° SSW daylight
01 May - 06:07:15 10° SW 06:10:29 63° NW 06:13:43 10° NE daylight
01 May - 12:38:46 10° NNW 12:41:20 21° NE 12:43:53 10° E daylight
01 May - 14:14:56 10° WNW 14:17:48 29° SW 14:20:40 10° SSE daylight
02 May - 05:15:13 10° SSW 05:18:24 55° SE 05:21:36 10° NE daylight
02 May - 06:53:14 10° WNW 06:55:07 14° NNW 06:57:01 10° N daylight
02 May - 11:47:26 10° N 11:49:00 13° NNE 11:50:33 10° ENE daylight
02 May - 13:22:33 10° NW 13:25:47 68° SW 13:29:00 10° SE daylight
03 May - 04:23:41 10° S 04:26:23 24° SE 04:29:07 10° ENE visible
03 May - 06:00:04 10° W 06:02:48 24° NW 06:05:33 10° NNE daylight
03 May - 12:30:29 10° NW 12:33:40 51° NE 12:36:51 10° ESE daylight
03 May - 14:09:12 10° WSW 14:09:46 10° SW 14:10:21 10° SW daylight
04 May - 03:33:15 10° SSE 03:34:27 12° SE 03:35:38 10° ESE visible
04 May - 05:07:25 10° WSW 05:10:35 47° NW 05:13:45 10° NE visible
04 May - 11:38:39 10° NNW 11:41:27 26° NE 11:44:14 10° E daylight
04 May - 13:15:14 10° WNW 13:17:50 22° SW 13:20:25 10° S daylight
05 May - 04:15:10 10° SW 04:18:25 76° SE 04:21:42 10° NE visible
05 May - 05:53:52 10° NW 05:55:15 12° NNW 05:56:39 10° N daylight
05 May - 10:47:06 10° N 10:49:07 15° NNE 10:51:08 10° ENE daylight
05 May - 12:22:38 10° WNW 12:25:48 49° SW 12:28:56 10° SSE daylight
06 May - 03:23:23 10° SSW 03:26:21 32° SE 03:29:19 10° ENE visible
06 May - 05:00:22 10° W 05:02:52 20° NW 05:05:21 10° NNE visible
06 May - 11:30:26 10° NW 11:33:41 70° NE 11:36:54 10° SE daylight
